Regional Weather Roundup
Issued by NWS Cleveland, OH

Home | Current Version | Previous Version | Graphics & Text | Print | Product List | Glossary On
Versions: 1 2 3 4 5 6 7 8 9 10 11 12 13 14 15 16 17 18 19 20 21 22 23 24 25 26 27 28 29 30 31 32 33 34 35 36 37 38 39 40 41 42 43 44 45 46 47 48 49 50
000
ASUS41 KCLE 311702
RWRCLE
OHIO REGIONAL WEATHER ROUNDUP
NATIONAL WEATHER SERVICE CLEVELAND, OH
100 PM EDT MON AUG 31 2015

NOTE: "FAIR" INDICATES FEW OR NO CLOUDS BELOW 12,000 FEET WITH NO
SIGNIFICANT WEATHER AND/OR OBSTRUCTIONS TO VISIBILITY.

OHZ001>008-015>018-024>027-034-035-043-044-311800-
   NORTHWEST OHIO

CITY           SKY/WX    TMP DP  RH WIND       PRES   REMARKS
DEFIANCE       SUNNY     82  69  64 VRB3      30.11F
FINDLAY        MOSUNNY   83  69  62 W7        30.10F
TOLEDO EXPRESS MOSUNNY   82  69  64 VRB3      30.10F
TOLEDO EXEC    MOSUNNY   82  68  62 SW6       30.11S
LIMA           MOSUNNY   83  68  60 SW7       30.12F
$$

OHZ009>014-019>023-028>033-038-089-311800-
   NORTHEAST OHIO

CITY           SKY/WX    TMP DP  RH WIND       PRES   REMARKS
CLE-HOPKINS    MOSUNNY   82  68  62 W9        30.13S
CLE-LAKEFRONT  SUNNY     77  70  79 NW7       30.10S
CUY CO. ARPT   NOT AVBL
LORAIN-ELYRIA  MOSUNNY   81  69  67 NW9       30.11F
ASHTABULA      PTSUNNY   81  70  69 W9        30.11S
AKRON-CANTON   MOSUNNY   85  66  53 VRB6      30.12F
WOOSTER        PTSUNNY   83  67  58 VRB5      30.12F
MANSFIELD      MOSUNNY   83  67  58 W10       30.14S
YOUNGSTOWN     PTSUNNY   83  67  58 W8        30.11F
$$

OHZ042-051>053-060>062-070>072-077>081-311800-
  SOUTHWEST OHIO

CITY           SKY/WX    TMP DP  RH WIND       PRES   REMARKS
CINC-COVINGTON MOSUNNY   84  64  50 W7        30.14F
CINC-LUNKEN    PTSUNNY   84  68  58 SW8       30.13F
HAMILTON       MOSUNNY   84  69  60 SW6       30.14F
DAYTON         MOSUNNY   83  68  60 SW8       30.14F
WRIGHT-PAT AFB MOSUNNY   83  69  63 VRB5      30.12F
DAYTON GENERAL SUNNY     81  66  60 VRB5      30.13F
WILMINGTON     SUNNY     83  67  58 SW7       30.14F
$$

OHZ036-037-039>041-045>050-054>059-063>069-073>076-082>088-311800-
  CENTRAL AND SOUTHEAST OHIO

CITY           SKY/WX    TMP DP  RH WIND       PRES   REMARKS
COLUMBUS       MOSUNNY   82  67  60 CALM      30.12F
OSU AIRPORT    MOSUNNY   83  67  58 SW6       30.13F
BOLTON FIELD   PTSUNNY   82  70  65 W3        30.13F
RICKENBACK AFB MOSUNNY   82  67  61 CALM      30.12F
NEWARK         PTSUNNY   82  67  60 CALM      30.12F
MARION         SUNNY     82  67  60 NW5       30.13F
LANCASTER      MOSUNNY   81  68  64 W3        30.13F
ZANESVILLE     PTSUNNY   84  64  50 SW7       30.13F
NEW PHILLY     MOSUNNY   85  67  54 VRB3      30.12F
$$



USA.gov is the U.S. government's official web portal to all federal, state and local government web resources and services.